Date String (YYYY-MM-DD hh:mm:ss) UTC,Instrument flags,Ambient pressure (hPa),Sample flow (lpm),Bypass flow (lpm),Sample temperature (°C),Ambient temperature (°C),ASC tube jacket temperature (°C),LED temperature (°C),Box temperature (°C),Sample RH (%),Span deviation,Mass concentration (μg/m³),Mass concentration (μg/m³),Mass concentration (μg/m³)
DateTimeUTC,F1_M11,P_M11,Q1_M11,Q2_M11,T1_M11,T2_M11,T3_M11,T4_M11,T5_M11,U1_M11,ZSPAN_M11,X0_M11,X2_M11,X1_M11
2021-11-16 17:00:00,,0817.8,5.00,0.00,28.7,27.8,00.0,37.7,30.4,08.5,0000.0,0004.14,0000.85,0000.27
2021-11-16 17:01:00,,0817.8,5.00,0.00,28.7,27.7,00.0,37.7,30.4,08.4,0000.0,0007.30,0001.01,0000.28
2021-11-16 17:02:00,,0817.8,4.99,0.00,28.7,27.8,00.0,37.7,30.5,08.3,0000.0,0007.40,0001.03,0000.28
2021-11-16 17:03:00,,0817.8,5.00,0.00,28.7,27.8,00.0,37.8,30.4,08.2,0000.0,0007.41,0001.01,0000.28
2021-11-16 17:04:00,,0817.8,5.00,0.00,28.7,27.8,00.0,37.8,30.4,08.3,0000.0,0007.35,0000.96,0000.28
2021-11-16 17:05:00,,0817.8,5.01,0.00,28.8,27.8,00.0,37.8,30.4,08.3,0000.0,0007.32,0000.94,0000.28
2021-11-16 17:06:00,,0817.8,5.01,0.00,28.8,27.8,00.0,37.8,30.4,08.3,0000.0,0007.42,0000.96,0000.28
2021-11-16 17:07:00,,0817.8,4.98,0.00,28.8,27.7,00.0,37.8,30.4,08.2,0000.0,0007.19,0000.87,0000.28
2021-11-16 17:08:00,,0817.8,5.00,0.00,28.8,27.8,00.0,37.8,30.5,08.2,0000.0,0006.78,0000.77,0000.27
2021-11-16 17:09:00,,0817.8,5.00,0.00,28.8,27.8,00.0,37.8,30.5,08.2,0000.0,0006.77,0000.78,0000.27
2021-11-16 17:10:00,,0817.7,5.01,0.00,28.8,27.8,00.0,37.8,30.5,08.2,0000.0,0006.89,0000.80,0000.28
2021-11-16 17:11:00,,0817.7,5.00,0.00,28.8,27.9,00.0,37.8,30.5,08.3,0000.0,0005.88,0000.79,0000.28
2021-11-16 17:12:00,,0817.7,4.99,0.00,28.8,27.8,00.0,37.8,30.5,08.3,0000.0,0002.27,0000.66,0000.27
2021-11-16 17:13:00,,0817.8,5.00,0.00,28.8,27.8,00.0,37.8,30.5,08.2,0000.0,0006.83,0001.39,0000.35
2021-11-16 17:14:00,,0817.7,5.00,0.00,28.8,27.8,00.0,37.8,30.5,08.3,0000.0,0007.59,0001.55,0000.37
2021-11-16 17:15:00,,0817.7,5.00,0.00,28.8,27.8,00.0,37.8,30.5,08.4,0000.0,0007.63,0001.60,0000.39
2021-11-16 17:16:00,,0817.7,4.99,0.00,28.8,27.8,00.0,37.8,30.6,08.3,0000.0,0007.70,0001.65,0000.40
2021-11-16 17:17:00,,0817.7,5.01,0.00,28.9,27.8,00.0,37.8,30.6,08.3,0000.0,0007.61,0001.63,0000.40
2021-11-16 17:18:00,,0817.6,4.99,0.00,28.9,27.9,00.0,37.9,30.6,08.3,0000.0,0007.60,0001.62,0000.41
2021-11-16 17:19:00,,0817.6,5.00,0.00,28.9,27.9,00.0,37.9,30.6,08.2,0000.0,0007.65,0001.62,0000.42
2021-11-16 17:20:00,,0817.6,5.00,0.00,28.9,28.0,00.0,37.9,30.6,08.1,0000.0,0007.77,0001.64,0000.42
2021-11-16 17:21:00,,0817.7,4.99,0.00,28.9,28.0,00.0,37.9,30.6,08.1,0000.0,0007.64,0001.59,0000.42
2021-11-16 17:22:00,,0817.7,5.01,0.00,28.9,28.0,00.0,37.9,30.6,08.1,0000.0,0007.63,0001.58,0000.42
2021-11-16 17:23:00,,0817.7,4.99,0.00,28.9,28.0,00.0,37.9,30.6,08.1,0000.0,0007.47,0001.51,0000.41
2021-11-16 17:24:00,,0817.6,4.99,0.00,28.9,28.0,00.0,37.9,30.6,08.1,0000.0,0002.36,0000.77,0000.35
2021-11-16 17:25:00,,0817.6,5.02,0.00,28.9,28.0,00.0,37.9,30.6,08.1,0000.0,0001.59,0000.63,0000.34
2021-11-16 17:26:00,,0817.6,4.99,0.00,28.9,28.0,00.0,37.9,30.6,08.0,0000.0,0001.46,0000.56,0000.33
2021-11-16 17:27:00,,0817.6,5.00,0.00,29.0,27.9,00.0,37.9,30.6,08.1,0000.0,0001.36,0000.51,0000.32
2021-11-16 17:28:00,,0817.6,5.02,0.00,29.0,27.9,00.0,37.9,30.7,08.1,0000.0,0001.64,0000.51,0000.33
2021-11-16 17:29:00,,0817.5,5.00,0.00,29.0,28.0,00.0,38.0,30.7,08.1,0000.0,0001.64,0000.50,0000.32
2021-11-16 17:30:00,,0817.5,5.00,0.00,29.0,28.1,00.0,38.0,30.7,08.0,0000.0,0001.59,0000.52,0000.32
2021-11-16 17:31:00,,0817.5,5.01,0.00,29.0,28.1,00.0,38.0,30.7,08.0,0000.0,0001.30,0000.50,0000.32
2021-11-16 17:32:00,,0817.5,4.99,0.00,29.0,28.1,00.0,38.0,30.7,07.9,0000.0,0001.37,0000.51,0000.32
2021-11-16 17:33:00,,0817.6,5.00,0.00,29.0,28.1,00.0,38.0,30.7,07.8,0000.0,0001.47,0000.52,0000.32
2021-11-16 17:34:00,,0817.6,5.00,0.00,29.0,28.1,00.0,38.0,30.7,07.8,0000.0,0001.54,0000.52,0000.31
2021-11-16 17:35:00,,0817.5,5.00,0.00,29.0,28.1,00.0,38.0,30.7,08.0,0000.0,0001.53,0000.50,0000.31
2021-11-16 17:36:00,,0817.6,5.00,0.00,29.0,28.1,00.0,38.0,30.7,08.0,0000.0,0002.17,0000.51,0000.30
2021-11-16 17:37:00,,0817.7,4.99,0.00,29.0,28.1,00.0,38.0,30.7,07.9,0000.0,0003.24,0000.54,0000.31
2021-11-16 17:38:00,,0817.6,5.00,0.00,29.0,28.1,00.0,38.0,30.7,07.9,0000.0,0004.04,0000.58,0000.31
2021-11-16 17:39:00,,0817.6,5.00,0.00,29.1,28.1,00.0,38.0,30.7,08.0,0000.0,0004.05,0000.60,0000.30
2021-11-16 17:40:00,,0817.6,4.99,0.00,29.1,28.1,00.0,38.1,30.8,08.1,0000.0,0004.53,0000.64,0000.30
2021-11-16 17:41:00,,0817.5,5.00,0.00,29.1,28.1,00.0,38.1,30.8,08.0,0000.0,0004.71,0000.63,0000.30
2021-11-16 17:42:00,,0817.5,5.01,0.00,29.1,28.1,00.0,38.1,30.8,08.0,0000.0,0005.20,0000.64,0000.31
2021-11-16 17:43:00,,0817.5,5.00,0.00,29.1,28.1,00.0,38.1,30.8,08.0,0000.0,0005.15,0000.64,0000.31
2021-11-16 17:44:00,,0817.4,5.00,0.00,29.1,28.1,00.0,38.1,30.8,07.8,0000.0,0005.04,0000.63,0000.31
2021-11-16 17:45:00,,0817.4,4.99,0.00,29.1,28.2,00.0,38.1,30.9,07.8,0000.0,0005.01,0000.63,0000.31
2021-11-16 17:46:00,,0817.5,5.00,0.00,29.1,28.2,00.0,38.1,30.9,07.8,0000.0,0004.89,0000.61,0000.31
2021-11-16 17:47:00,,0817.6,5.00,0.00,29.2,28.3,00.0,38.1,30.9,07.8,0000.0,0004.36,0000.59,0000.31
2021-11-16 17:48:00,,0817.5,5.01,0.00,29.2,28.3,00.0,38.1,30.9,07.8,0000.0,0003.21,0000.55,0000.29
2021-11-16 17:49:00,,0817.6,5.02,0.00,29.2,28.3,00.0,38.2,30.9,07.8,0000.0,0002.99,0000.51,0000.29
2021-11-16 17:50:00,,0817.6,4.99,0.00,29.2,28.3,00.0,38.2,30.9,07.9,0000.0,0003.67,0000.47,0000.29
2021-11-16 17:51:00,,0817.6,5.01,0.00,29.2,28.3,00.0,38.2,30.9,07.9,0000.0,0003.17,0000.42,0000.28
2021-11-16 17:52:00,,0817.5,5.01,0.00,29.3,28.3,00.0,38.2,30.9,07.9,0000.0,0003.04,0000.43,0000.28
2021-11-16 17:53:00,,0817.5,5.00,0.00,29.3,28.3,00.0,38.2,30.9,07.9,0000.0,0002.81,0000.43,0000.27
2021-11-16 17:54:00,,0817.5,4.99,0.00,29.3,28.3,00.0,38.2,31.0,07.7,0000.0,0002.87,0000.46,0000.27
2021-11-16 17:55:00,,0817.3,5.01,0.00,29.3,28.4,00.0,38.2,31.0,07.6,0000.0,0002.89,0000.46,0000.27
2021-11-16 17:56:00,,0817.3,4.98,0.00,29.3,28.4,00.0,38.2,31.0,07.6,0000.0,0002.91,0000.47,0000.27
2021-11-16 17:57:00,,0817.4,5.00,0.00,29.3,28.4,00.0,38.3,31.0,07.5,0000.0,0003.02,0000.51,0000.28
2021-11-16 17:58:00,,0817.4,5.00,0.00,29.3,28.4,00.0,38.3,31.0,07.5,0000.0,0003.16,0000.56,0000.28
2021-11-16 17:59:00,,0817.5,5.01,0.00,29.3,28.4,00.0,38.3,31.0,07.6,0000.0,0003.14,0000.60,0000.29
